When you browse on this site, cookies collect data to enhance your experience and personalize the content and advertising you see.
Visit our Privacy Policy to learn more. By continuing to use the site, you agree to this use of cookies and data.
  • In Portugal
  • List of Countries
  • For 7 days
  • Water Temperature
  • Satellite Maps
  • Weather Map
  • Weather Widgets
  • user-avatar
    Login

    Hourly Weather Verhniy Katruh

    Today, 26 June, Wednesday

    Time Temperature Precipitation Wind Pressure Humidity
    00:00 +12°C° 0 mm 1 mps 588 mmHg 67%
    01:00 +12°C° 0 mm 1 mps 588 mmHg 67%
    02:00 +11°C° 0 mm 1 mps 588 mmHg 67%
    03:00 +11°C° 0 mm 1 mps 588 mmHg 68%
    04:00 +13°C° 0 mm 1 mps 589 mmHg 65%
    05:00 +14°C° 0 mm 1 mps 590 mmHg 63%
    06:00 +16°C° 0 mm 1 mps 591 mmHg 60%
    07:00 +18°C° 0 mm 1 mps 591 mmHg 57%
    08:00 +19°C° 0 mm 2 mps 592 mmHg 54%
    09:00 +20°C° 0 mm 2 mps 592 mmHg 51%
    10:00 +20°C° 0.4 mm 2 mps 592 mmHg 53%
    11:00 +20°C° 0.4 mm 3 mps 592 mmHg 54%
    12:00 +21°C° 0.4 mm 3 mps 593 mmHg 56%
    13:00 +21°C° 0.6 mm 3 mps 592 mmHg 56%
    14:00 +20°C° 0.6 mm 3 mps 592 mmHg 57%
    15:00 +20°C° 0.6 mm 2 mps 592 mmHg 57%
    16:00 +20°C° 0.4 mm 2 mps 592 mmHg 60%
    17:00 +19°C° 0.4 mm 2 mps 591 mmHg 64%
    18:00 +18°C° 0.4 mm 2 mps 591 mmHg 67%
    19:00 +16°C° 0.2 mm 1 mps 590 mmHg 70%
    20:00 +14°C° 0.2 mm 1 mps 589 mmHg 74%
    21:00 +12°C° 0.2 mm 1 mps 588 mmHg 78%
    22:00 +12°C° 0.1 mm 1 mps 588 mmHg 79%
    23:00 +11°C° 0.1 mm 1 mps 587 mmHg 80%

    Tomorrow, 27 June, Thursday

    Time Temperature Precipitation Wind Pressure Humidity
    00:00 +11°C° 0.1 mm 1 mps 587 mmHg 81%
    01:00 +11°C° 0 mm 1 mps 587 mmHg 80%
    02:00 +11°C° 0 mm 1 mps 587 mmHg 79%
    03:00 +11°C° 0 mm 1 mps 587 mmHg 79%
    04:00 +12°C° 0.1 mm 1 mps 587 mmHg 77%
    05:00 +13°C° 0.1 mm 1 mps 588 mmHg 75%
    06:00 +15°C° 0.1 mm 1 mps 589 mmHg 73%
    07:00 +16°C° 0.3 mm 1 mps 589 mmHg 72%
    08:00 +17°C° 0.3 mm 2 mps 589 mmHg 71%
    09:00 +17°C° 0.3 mm 2 mps 590 mmHg 70%
    10:00 +17°C° 0.8 mm 2 mps 589 mmHg 72%
    11:00 +17°C° 0.8 mm 2 mps 589 mmHg 74%
    12:00 +17°C° 0.8 mm 2 mps 589 mmHg 77%
    13:00 +17°C° 0.8 mm 2 mps 588 mmHg 76%
    14:00 +17°C° 0.8 mm 2 mps 588 mmHg 76%
    15:00 +17°C° 0.8 mm 2 mps 588 mmHg 76%
    16:00 +17°C° 0.4 mm 2 mps 587 mmHg 78%
    17:00 +16°C° 0.4 mm 1 mps 587 mmHg 80%
    18:00 +16°C° 0.4 mm 1 mps 587 mmHg 81%
    19:00 +14°C° 0.1 mm 1 mps 586 mmHg 84%
    20:00 +13°C° 0.1 mm 1 mps 585 mmHg 87%
    21:00 +12°C° 0.1 mm 1 mps 585 mmHg 90%
    22:00 +11°C° 0.1 mm 1 mps 584 mmHg 90%
    23:00 +11°C° 0.1 mm 1 mps 584 mmHg 89%

    Day after tomorrow, 28 June, Friday

    Time Temperature Precipitation Wind Pressure Humidity
    00:00 +11°C° 0.1 mm 1 mps 584 mmHg 89%
    01:00 +11°C° 0 mm 1 mps 583 mmHg 88%
    02:00 +10°C° 0 mm 1 mps 583 mmHg 86%
    03:00 +10°C° 0 mm 1 mps 583 mmHg 85%
    04:00 +11°C° 0 mm 1 mps 583 mmHg 83%
    05:00 +13°C° 0 mm 1 mps 584 mmHg 82%
    06:00 +14°C° 0 mm 1 mps 584 mmHg 80%
    07:00 +15°C° 0 mm 1 mps 585 mmHg 76%
    08:00 +16°C° 0 mm 1 mps 585 mmHg 71%
    09:00 +18°C° 0 mm 2 mps 585 mmHg 67%
    10:00 +18°C° 0.8 mm 2 mps 585 mmHg 67%
    11:00 +18°C° 0.8 mm 2 mps 585 mmHg 68%
    12:00 +19°C° 0.8 mm 2 mps 585 mmHg 68%
    13:00 +19°C° 1 mm 2 mps 585 mmHg 66%
    14:00 +19°C° 1 mm 2 mps 585 mmHg 64%
    15:00 +19°C° 1 mm 2 mps 584 mmHg 61%
    16:00 +19°C° 0.5 mm 2 mps 584 mmHg 65%
    17:00 +18°C° 0.5 mm 2 mps 583 mmHg 69%
    18:00 +17°C° 0.5 mm 2 mps 583 mmHg 73%
    19:00 +16°C° 0 mm 2 mps 582 mmHg 77%
    20:00 +14°C° 0 mm 2 mps 582 mmHg 80%
    21:00 +12°C° 0 mm 2 mps 581 mmHg 84%
    22:00 +12°C° 0 mm 2 mps 581 mmHg 84%
    23:00 +12°C° 0 mm 2 mps 581 mmHg 85%

    29 June, Saturday

    Time Temperature Precipitation Wind Pressure Humidity
    00:00 +12°C° 0 mm 2 mps 581 mmHg 85%
    01:00 +13°C° 0 mm 1 mps 581 mmHg 85%
    02:00 +13°C° 0 mm 1 mps 581 mmHg 84%
    03:00 +13°C° 0 mm 1 mps 581 mmHg 83%
    04:00 +13°C° 0 mm 1 mps 581 mmHg 83%
    05:00 +14°C° 0 mm 1 mps 581 mmHg 82%
    06:00 +14°C° 0 mm 1 mps 582 mmHg 82%
    07:00 +15°C° 0.1 mm 1 mps 582 mmHg 77%
    08:00 +17°C° 0.1 mm 2 mps 583 mmHg 73%
    09:00 +18°C° 0.1 mm 2 mps 583 mmHg 68%
    10:00 +18°C° 0.8 mm 3 mps 584 mmHg 69%
    11:00 +18°C° 0.8 mm 3 mps 584 mmHg 69%
    12:00 +19°C° 0.8 mm 3 mps 584 mmHg 70%
    13:00 +18°C° 1.4 mm 3 mps 583 mmHg 73%
    14:00 +17°C° 1.4 mm 2 mps 583 mmHg 77%
    15:00 +17°C° 1.4 mm 2 mps 583 mmHg 81%
    16:00 +17°C° 1.1 mm 2 mps 583 mmHg 80%
    17:00 +16°C° 1.1 mm 2 mps 583 mmHg 79%
    18:00 +16°C° 1.1 mm 1 mps 583 mmHg 78%
    19:00 +15°C° 0.6 mm 1 mps 583 mmHg 83%
    20:00 +14°C° 0.6 mm 1 mps 583 mmHg 89%
    21:00 +13°C° 0.6 mm 1 mps 583 mmHg 94%
    22:00 +13°C° 2.5 mm 1 mps 583 mmHg 94%
    23:00 +12°C° 2.5 mm 1 mps 583 mmHg 93%

    30 June, Sunday

    Time Temperature Precipitation Wind Pressure Humidity
    00:00 +12°C° 2.5 mm 1 mps 583 mmHg 93%
    01:00 +12°C° 0.1 mm 1 mps 583 mmHg 92%
    02:00 +11°C° 0.1 mm 1 mps 583 mmHg 92%
    03:00 +11°C° 0.1 mm 1 mps 583 mmHg 91%
    04:00 +12°C° 0 mm 1 mps 583 mmHg 90%
    05:00 +12°C° 0 mm 1 mps 583 mmHg 90%
    06:00 +12°C° 0 mm 1 mps 583 mmHg 89%
    07:00 +13°C° 0.2 mm 1 mps 584 mmHg 86%
    08:00 +14°C° 0.2 mm 2 mps 584 mmHg 83%
    09:00 +14°C° 0.2 mm 3 mps 585 mmHg 80%
    10:00 +14°C° 0.5 mm 3 mps 585 mmHg 81%
    11:00 +16°C° 0.5 mm 3 mps 585 mmHg 82%
    12:00 +16°C° 0.5 mm 3 mps 585 mmHg 83%
    13:00 +14°C° 0.6 mm 3 mps 584 mmHg 84%
    14:00 +14°C° 0.6 mm 3 mps 584 mmHg 86%
    15:00 +15°C° 0.6 mm 2 mps 584 mmHg 87%
    16:00 +15°C° 0.5 mm 2 mps 584 mmHg 89%
    17:00 +14°C° 0.5 mm 2 mps 584 mmHg 90%
    18:00 +14°C° 0.5 mm 1 mps 584 mmHg 91%
    19:00 +13°C° 0.6 mm 1 mps 584 mmHg 94%
    20:00 +13°C° 0.6 mm 2 mps 584 mmHg 96%
    21:00 +12°C° 0.6 mm 2 mps 585 mmHg 98%
    22:00 +12°C° 1.3 mm 2 mps 585 mmHg 98%
    23:00 +12°C° 1.3 mm 2 mps 585 mmHg 98%

    1 July, Monday

    Time Temperature Precipitation Wind Pressure Humidity
    00:00 +12°C° 1.3 mm 2 mps 585 mmHg 98%
    01:00 +10°C° 1.9 mm 2 mps 585 mmHg 98%
    02:00 +10°C° 1.9 mm 2 mps 584 mmHg 98%
    03:00 +10°C° 1.9 mm 2 mps 584 mmHg 99%
    04:00 +10°C° 1.9 mm 2 mps 584 mmHg 99%
    05:00 +9°C° 1.9 mm 2 mps 584 mmHg 98%
    06:00 +9°C° 1.9 mm 2 mps 584 mmHg 98%
    07:00 +9°C° 1.9 mm 2 mps 584 mmHg 98%
    08:00 +9°C° 1.9 mm 2 mps 584 mmHg 98%
    09:00 +9°C° 1.9 mm 2 mps 584 mmHg 98%
    10:00 +9°C° 3.1 mm 2 mps 584 mmHg 98%
    11:00 +9°C° 3.1 mm 3 mps 584 mmHg 98%
    12:00 +9°C° 3.1 mm 3 mps 584 mmHg 98%
    13:00 +9°C° 2.1 mm 3 mps 584 mmHg 98%
    14:00 +8°C° 2.1 mm 2 mps 584 mmHg 98%
    15:00 +8°C° 2.1 mm 2 mps 584 mmHg 98%
    16:00 +8°C° 1.7 mm 2 mps 584 mmHg 98%
    17:00 +8°C° 1.7 mm 2 mps 584 mmHg 98%
    18:00 +9°C° 1.7 mm 1 mps 584 mmHg 98%
    19:00 +8°C° 1.1 mm 1 mps 584 mmHg 98%
    20:00 +8°C° 1.1 mm 1 mps 584 mmHg 97%
    21:00 +8°C° 1.1 mm 1 mps 584 mmHg 97%
    22:00 +8°C° 1.2 mm 1 mps 584 mmHg 96%
    23:00 +7°C° 1.2 mm 1 mps 584 mmHg 96%
    Show more